This demonstration page uses our WeatherBlox Daily Observations layout. Learn more.

Left ArrowRight Arrow

44.8408, -93.29828

Hourly Observations for June 19, 2017

Temp ( °F °C ) Dew Point ( °F °C ) Humidity (%) Winds ( mph kmh ) Pressure ( in mb ) Visibility ( mi km ) Precip ( " mm )
12:53 am 00:53 Mostly Cloudy 64 17.8 54 12.2 70 70 W 8 13 29.78 1009 10 16 0.00 0.00
1:53 am 01:53 Mostly Cloudy 64 17.8 55 12.8 73 73 WNW 10 17 29.78 1008 10 16 0.00 0.00
2:53 am 02:53 Mostly Cloudy 63 17.2 55 12.8 76 76 WNW 10 17 29.78 1009 10 16 0.00 0.00
3:53 am 03:53 Mostly Cloudy 62 16.7 55 12.8 78 78 WNW 9 15 29.79 1009 10 16 0.00 0.00
4:53 am 04:53 Mostly Cloudy 61 16.1 55 12.8 81 81 WNW 8 13 29.79 1009 10 16 0.00 0.00
5:53 am 05:53 Mostly Cloudy 61 16.1 56 13.3 84 84 WNW 10 17 29.81 1010 10 16 0.00 0.00
6:53 am 06:53 Mostly Cloudy 62 16.7 54 12.2 75 75 WNW 13 20 29.83 1010 10 16 0.00 0.00
7:53 am 07:53 Partly Cloudy 64 17.8 52 11.1 65 65 WNW 14 22 29.85 1011 10 16 0.00 0.00
8:53 am 08:53 Mostly Sunny 66 18.9 51 10.6 59 59 NW 18 30 29.85 1011 10 16 0.00 0.00
9:53 am 09:53 Mostly Cloudy 66 18.9 50 10 56 56 WNW 15 24 29.86 1011 10 16 0.00 0.00
10:53 am 10:53 Mostly Cloudy 67 19.4 50 10 55 55 NW 15 24 29.87 1012 10 16 0.00 0.00
11:53 am 11:53 Mostly Cloudy 69 20.6 51 10.6 53 53 NW 15 24 29.87 1012 10 16 0.00 0.00
12:53 pm 12:53 Mostly Cloudy 71 21.7 49 9.4 46 46 NW 15 24 29.88 1012 10 16 0.00 0.00
1:53 pm 13:53 Mostly Cloudy 72 22.2 49 9.4 44 44 NW 13 20 29.87 1012 10 16 0.00 0.00
2:53 pm 14:53 Mostly Cloudy 72 22.2 49 9.4 44 44 WNW 15 24 29.87 1012 10 16 0.00 0.00
3:53 pm 15:53 Mostly Cloudy 74 23.3 48 8.9 40 40 WNW 16 26 29.88 1012 10 16 0.00 0.00
4:53 pm 16:53 Mostly Cloudy 72 22.2 47 8.3 41 41 NNW 14 22 29.88 1012 10 16 0.00 0.00
5:53 pm 17:53 Partly Cloudy 73 22.8 45 7.2 37 37 NW 21 33 29.87 1012 10 16 0.00 0.00
6:53 pm 18:53 Partly Cloudy 72 22.2 46 7.8 40 40 NW 17 28 29.89 1012 10 16 0.00 0.00
7:53 pm 19:53 Partly Cloudy 71 21.7 47 8.3 42 42 NW 13 20 29.89 1012 10 16 0.00 0.00
8:53 pm 20:53 Mostly Sunny 69 20.6 47 8.3 45 45 NW 10 17 29.89 1012 10 16 0.00 0.00
9:53 pm 21:53 Clear 67 19.4 48 8.9 51 51 WNW 7 11 29.91 1013 10 16 0.00 0.00
10:53 pm 22:53 Clear 66 18.9 49 9.4 54 54 W 7 11 29.92 1013 10 16 0.00 0.00
11:53 pm 23:53 Clear 64 17.8 49 9.4 58 58 W 5 7 29.92 1013 10 16 0.00 0.00

Powered by AerisWeather